Showing default

FLOCK 4G 12, 62625

Orbit data source: Space-Track

FLOCK 4G 12, 62625 is a payload satellite owned by Planet (US) in SSO that was launched on Tue, 14 Jan 2025 UTC via an FALCON 9 launch vehicle from the Air Force Western Test Range (AFWTR). Payload-class satellites include a variety of spacecraft equipped with specific instruments for various scientific and technological missions. These include communications satellites like Starlink; space stations such as the ISS; scientific satellites like the Hubble; Earth observation satellites from companies like Planet Labs, Umbra, and HawkEye 360; GPS; miniature CubeSats for education and research; and military/defense satellites.

Loading next visibility...
Identifier
62625, 2025-009S
Orbit
SSO
Country
Flag of USUS
Related business
Manufacturer
Planet
Mission
Operational Commercial Imaging
Bus & Motor
CUBESAT 3U, Unknown motor
Mass
5.7 kg wet, 5.7 kg dry
Launch date (UTC)
2025-01-14 (1 year ago)
Launch vehicle
FALCON 9
Launch site
Air Force Western Test Range (AFWTR)
Object type
Payload
Rocket body
Debris
Shape & HBR
Box + 2 Pan, 1.0 m
Radar Cross Section
0.072 m², Medium (>0.1 m² and < 1m²)

Expand to show TLE details & history
Last TLE update: 21 hours ago

TLE from 21 hours ago
0 FLOCK 4G 12
1 62625U 25009S   26067.73677411  .00014451  00000-0  54695-3 0  9991
2 62625  97.4062 150.2139 0002866 316.3695  43.7317 15.27035121 63569
Epoch: 2026-03-08T17:40Z
TLE epoch observation values (Epoch: 2026-03-08T17:40:57.283Z)
Latitude
Longitude
78.53544°
Altitude
486.36 km
Speed
7.623 km/s
True Right ascension
10h 00m 51s
True Declination
0° 00' 00"
Sunlit
Object was in full shadow at epoch
Visualization orbit readout
Latitude
Unknown
Longitude
Unknown
Altitude
Unknown
Speed
Unknown
Apparent Right ascension
Unknown
Apparent Declination
Unknown
Sunlit
N/A
Visualization observer readout
Local Sidereal Time
18:55:58
Azimuth
Unknown
Elevation
Unknown
Doppler factor
Unknown
Orbital elements
Apogee altitude
483.604 km
Perigee altitude
479.672 km
Semi-major axis
6,859.775 km
Eccentricity
0.00029
Inclination
97.4062°
RAAN
150.2139°
Arg. of periapsis
316.3695°
True anomaly
43.75441°
Mean anomaly
43.7317°
Eccentric anomaly
43.74305°
Mean motion
3.82013 °/min
Orbital period
94.24 mins
BSTAR
0.00054695
Loading maneuver chart data...
Computing Atmospheric mass density...
Loading historical data...
Loading historical data...
Loading historical data...
Loading historical data...
Loading historical data...
Loading historical data...
Loading historical data...

Documentation

Showing up to 5 results
|